| time (UTC) | temp F | wind direction | speed knots | gust knots | rain 1hr in | rain 24hr in | rain mn in | humidity % | barometer mb |
| 20260508152000 | 36 | 310 | 1.7 | 0.0 | 0.00 | 0.00 | 0.00 | 99 | |
| 20260508132058 | 36 | 330 | 4.3 | 0.0 | 0.00 | 0.00 | 0.00 | 99 | |
| 20260508121959 | 36 | 350 | 4.3 | 0.0 | 0.00 | 0.00 | 0.00 | 99 | |
| 20260508112000 | 37 | 310 | 1.7 | 0.0 | 0.00 | 0.00 | 0.00 | 99 | |
| 20260508102200 | 36 | 310 | 1.7 | 0.0 | 0.00 | 0.00 | 0.00 | 99 | |
| 20260508091958 | 36 | 290 | 4.3 | 0.0 | 0.00 | 0.00 | 0.00 | 99 | |
| 20260508072101 | 36 | 250 | 4.3 | 0.0 | 0.00 | 0.00 | 0.00 | 99 | |
| 20260508061959 | 36 | 330 | 4.3 | 0.0 | 0.00 | 0.00 | 0.00 | 99 | |
| 20260508051958 | 36 | 320 | 4.3 | 0.0 | 0.00 | 0.00 | 0.00 | 99 | |
| 20260508042202 | 36 | 250 | 6.1 | 0.0 | 0.00 | 0.00 | 0.00 | 99 | |
| 20260508031958 | 36 | 240 | 6.1 | 0.0 | 0.00 | 0.00 | 0.00 | 99 | |
| 20260508021942 | 36 | 260 | 7.8 | 0.0 | 0.00 | 0.00 | 0.00 | 99 | |
| 20260508012058 | 36 | 220 | 1.7 | 0.0 | 0.00 | 0.00 | 0.00 | 99 | |
| 20260508001958 | 36 | 260 | 6.1 | 0.0 | 0.00 | 0.00 | 0.00 | 99 | |
| 20260507231958 | 36 | 250 | 10.4 | 0.0 | 0.00 | 0.00 | 0.00 | 99 | |
| 20260507222300 | 36 | 320 | 1.7 | 12.2 | 0.00 | 0.00 | 0.00 | 99 | |
| 20260507211959 | 36 | 250 | 4.3 | 0.0 | 0.00 | 0.00 | 0.00 | 99 | |
| 20260507202000 | 37 | 260 | 6.1 | 0.0 | 0.00 | 0.00 | 0.00 | 99 | |
| 20260507192101 | 37 | 280 | 13.9 | 0.0 | 0.00 | 0.00 | 0.00 | 99 | |
| 20260507181957 | 39 | 260 | 7.8 | 0.0 | 0.00 | 0.00 | 0.00 | 99 | |
| 20260507171958 | 39 | 240 | 7.8 | 0.0 | 0.00 | 0.00 | 0.00 | 99 | |
| 20260507162259 | 39 | 250 | 7.8 | 0.0 | 0.00 | 0.00 | 0.00 | 99 |